COSMOS 2251 DEB, 35606

Orbit data source: Space-Track

COSMOS 2251 DEB, 35606 is space debris in LEO originally from a launch on Wed, 16 Jun 1993 UTC launched from the Plesetsk Missile And Space Complex (PKMTR). The debris from Iridium 33, an American commercial communications satellite, has been tracked extensively since its accidental collision with the defunct Russian satellite Cosmos 2251 in 2009. This event, occurring at high speed in low Earth orbit (LEO), generated thousands of pieces of space debris, significantly increasing the risk of further collisions. The Iridium 33 debris cloud has impacted space traffic management and orbital debris mitigation strategies, making it a subject of ongoing study in space situational awareness.

Loading next visibility...
Identifier
35606, 1993-036AMZ
Orbit
LEO
Country
Flag of CISCIS
Related business
Manufacturer
Unknown
Mission
Spacecraft
Bus & Motor
Unknown
Mass
Unknown
Launch date (UTC)
1993-06-16 (33 years ago)
Launch vehicle
Unknown
Launch site
Plesetsk Missile And Space Complex (PKMTR)
Object type
Payload
Rocket body
Debris
Shape & HBR
Unknown shape, 0.1 m
Radar Cross Section
Small (<0.1 m²)

Expand to show TLE details & history
Last TLE update: 7 hours ago

TLE from 7 hours ago
0 COSMOS 2251 DEB
1 35606U 93036AMZ 26062.17473914  .00000641  00000-0  64336-3 0  9999
2 35606  73.8056 242.5881 0455427  75.3581 289.7545 13.41325886621186
Epoch: 2026-03-03T04:11Z
TLE epoch observation values (Epoch: 2026-03-03T04:11:37.461Z)
Latitude
0.00001°
Longitude
18.72444°
Altitude
1,005.689 km
Speed
7.399 km/s
True Right ascension
16h 10m 21s
True Declination
0° 00' 00"
Sunlit
Object was in daylight at epoch
Visualization orbit readout
Latitude
Unknown
Longitude
Unknown
Altitude
Unknown
Speed
Unknown
Apparent Right ascension
Unknown
Apparent Declination
Unknown
Sunlit
N/A
Visualization observer readout
Local Sidereal Time
14:35:23
Azimuth
Unknown
Elevation
Unknown
Doppler factor
Unknown
Orbital elements
Apogee altitude
1,442.756 km
Perigee altitude
761.417 km
Semi-major axis
7,480.223 km
Eccentricity
0.04554
Inclination
73.8056°
RAAN
242.5881°
Arg. of periapsis
75.3581°
True anomaly
284.75291°
Mean anomaly
289.7545°
Eccentric anomaly
287.26264°
Mean motion
3.35484 °/min
Orbital period
107.31 mins
BSTAR
0.00064336
Loading maneuver chart data...
Computing Atmospheric mass density...

Documentation

Showing up to 5 results
|